Regional Weather Roundup
Issued by NWS Cleveland, OH

Home | Current Version | Previous Version | Graphics & Text | Print | Product List | Glossary On
Versions: 1 2 3 4 5 6 7 8 9 10 11 12 13 14 15 16 17 18 19 20 21 22 23 24 25 26 27 28 29 30 31 32 33 34 35 36 37 38 39 40 41 42 43 44 45 46 47 48 49 50
000
ASUS41 KCLE 061002
RWRCLE
OHIO REGIONAL WEATHER ROUNDUP
NATIONAL WEATHER SERVICE CLEVELAND, OH
600 AM EDT WED MAY 06 2015

NOTE: "FAIR" INDICATES FEW OR NO CLOUDS BELOW 12,000 FEET WITH NO
SIGNIFICANT WEATHER AND/OR OBSTRUCTIONS TO VISIBILITY.

OHZ001>008-015>018-024>027-034-035-043-044-061100-
   NORTHWEST OHIO

CITY           SKY/WX    TMP DP  RH WIND       PRES   REMARKS
DEFIANCE       FOG       53  52  96 E7        30.22F VSB 1/4
FINDLAY        FOG       53  52  96 E6        30.21S VSB 1/4
TOLEDO EXPRESS FOG       51  51 100 NE5       30.23S VSB 1/4
TOLEDO EXEC    FOG       51  50  96 NE3       30.24S VSB 1/4
LIMA           FOG       54  54 100 E5        30.20F VSB 1/4
$$

OHZ009>014-019>023-028>033-038-089-061100-
   NORTHEAST OHIO

CITY           SKY/WX    TMP DP  RH WIND       PRES   REMARKS
CLE-HOPKINS    FOG       52  50  93 CALM      30.24F VSB 3/4
CLE-LAKEFRONT  CLOUDY    53  51  93 N3        30.22S FOG
CUY CO. ARPT   NOT AVBL
LORAIN-ELYRIA  FOG       50  50 100 CALM      30.23S VSB<1/4
ASHTABULA      LGT RAIN  54  53  97 CALM      30.24S
AKRON-CANTON   FOG       59  57  93 NE7       30.22S VSB 1/4
WOOSTER        FOG       56  56 100 NE6       30.23R VSB 3/4
MANSFIELD      FOG       56  56 100 E7        30.22S VSB 1/4
YOUNGSTOWN     CLOUDY    57  57 100 E5        30.23R FOG
$$

OHZ042-051>053-060>062-070>072-077>081-061100-
  SOUTHWEST OHIO

CITY           SKY/WX    TMP DP  RH WIND       PRES   REMARKS
CINC-COVINGTON PTCLDY    57  53  86 CALM      30.20S
CINC-LUNKEN    CLEAR     53  53 100 CALM      30.21S FOG
HAMILTON       CLEAR     54  53  97 CALM      30.21S
DAYTON         PTCLDY    57  55  93 CALM      30.21S FOG
WRIGHT-PAT AFB NOT AVBL
DAYTON GENERAL CLEAR     63  53  70 CALM      30.20S
WILMINGTON     CLEAR     58  52  80 CALM      30.21R
$$

OHZ036-037-039>041-045>050-054>059-063>069-073>076-082>088-061100-
  CENTRAL AND SOUTHEAST OHIO

CITY           SKY/WX    TMP DP  RH WIND       PRES   REMARKS
COLUMBUS       MOCLDY    59  55  87 CALM      30.20S
OSU AIRPORT    PTCLDY    54  52  93 CALM      30.21S FOG
BOLTON FIELD   NOT AVBL
RICKENBACK AFB NOT AVBL
NEWARK         FOG       56  55  97 CALM      30.21R VSB 1/4
MARION         FOG       56  55  97 E3        30.21S VSB 1/4
LANCASTER      CLEAR     54  52  93 CALM      30.21S
ZANESVILLE     FOG       55  54  96 CALM      30.21S VSB 1/4
NEW PHILLY     FOG       61  59  93 E3        30.22S VSB 1
$$



USA.gov is the U.S. government's official web portal to all federal, state and local government web resources and services.